[[{"header":{"parameterUnit":"m.s-1","parameterCategory":1,"la1":30.2991,"la2":30.254,"lo1":-89.0895,"lo2":-89.0444,"dy":0.0017,"dx":0.0017,"nx":28,"ny":28,"refTime":"2023-10-13T09:00:00:Z","depth":0,"parameterNumber":2,"parameterNumberName":"U-component_of_WINDS"},"data":[0,0,0,0,0,0,0,0,0,0,0,0,0,0,0,0,0,0,0,0,0,0,0,0,0,0,0,0,0,0,0,0,0,0,0,0,0,0,0,0,0,0,0,0,0,0,0,0,0,0,0,0,0,0,0,0,0,0,3.1516,3.1517,0,3.1626,3.1627,3.1628,3.1576,3.1573,3.157,3.1567,3.168,3.1685,3.1691,0,0,0,0,0,0,0,0,0,0,0,0,0,3.126,3.1265,3.1516,3.1518,3.1519,3.1626,3.1627,3.1629,3.1576,3.1573,3.1569,3.1566,3.1678,3.1685,3.1691,0,0,0,0,0,0,0,0,0,0,0,0,0,3.1371,3.1266,3.1516,3.1506,3.1506,3.1625,3.1627,3.1629,3.1577,3.1573,3.1568,3.1564,3.1676,3.1684,3.1692,3.1829,0,0,3.1718,3.1722,0,0,0,0,0,0,0,0,3.1364,3.138,3.1506,3.1506,3.1507,3.1583,3.1578,3.1696,3.1578,3.155,3.1567,3.1562,3.1651,3.1661,3.1691,3.1834,3.1839,3.1719,3.1724,3.1728,3.173,0,0,0,0,0,0,0,3.1357,3.1375,3.156,3.1508,3.1508,3.1495,3.1506,3.16,3.1623,3.1552,3.1548,3.1562,3.165,3.1683,3.1693,3.1841,3.1719,3.1726,3.1731,3.1735,3.2098,3.2103,0,0,0,0,0,0,3.135,3.1369,3.1556,3.1563,3.1424,3.1503,3.1515,3.1563,3.1622,3.1626,3.1566,3.1559,3.1671,3.1684,3.1697,3.1859,3.1728,3.1735,3.174,3.2094,3.2099,3.2104,0,0,0,0,0,0,3.1344,3.1367,3.1552,3.1465,3.1488,3.1512,3.1565,3.1567,3.1599,3.1632,3.1636,3.1595,3.1668,3.1685,3.1796,3.1862,3.1739,3.1747,3.2088,3.2095,3.2102,3.2185,0,0,0,0,0,0,3.1337,3.1365,3.1418,3.1467,3.1492,3.1649,3.157,3.1572,3.1614,3.1607,3.166,3.1665,3.1666,3.1784,3.1804,3.1871,3.1753,3.2082,3.2091,3.21,3.2176,3.2193,3.2208,0,0,0,0,0,3.1328,3.1437,3.1421,3.1444,3.1559,3.1653,3.1668,3.1667,3.162,3.1672,3.1693,3.1663,3.1852,3.1795,3.1818,3.1889,3.2078,3.2089,3.2099,3.2169,3.219,3.2208,0,0,0,0,0,0,3.1396,3.1444,3.1426,3.1554,3.16,3.1644,3.1711,3.169,3.175,3.1741,3.1737,3.1749,3.1863,3.1887,3.1824,3.2023,3.1958,3.1973,3.2003,3.2023,3.2039,3.2031,3.176,0,0,0,0,0,3.1426,3.1499,3.1537,3.1646,3.167,3.1686,3.1728,3.1723,3.177,3.1789,3.1818,3.1865,3.1934,3.198,3.2046,3.2179,3.2189,3.2239,3.2255,3.2268,3.2281,3.2351,3.2373,3.2138,3.2138,3.2138,0,0,3.1489,3.1523,3.157,3.1661,3.1696,3.177,3.1703,3.1786,3.1841,3.1802,3.1907,3.193,3.1982,3.2104,3.2159,3.2127,3.2348,3.2282,3.2292,3.2298,3.2364,3.2386,3.2406,3.2145,3.2144,3.2143,0,0,3.164,3.1675,3.1769,3.1805,3.1859,3.1868,3.1891,3.1938,3.1952,3.2057,3.2029,3.2094,3.2215,3.2252,3.2287,3.2451,3.2426,3.2473,3.2557,3.2625,3.2644,3.266,3.2717,3.2738,3.2486,3.2486,3.2487,0,3.1711,3.1824,3.182,3.1905,3.1944,3.1911,3.2006,3.2041,3.2114,3.2142,3.2105,3.2254,3.2287,3.2416,3.2456,3.2486,3.251,3.2467,3.2642,3.2658,3.2673,3.2727,3.2749,3.2492,3.2491,3.2491,3.249,0,3.1907,3.1985,3.2055,3.2125,3.2172,3.2262,3.2271,3.2319,3.231,3.2323,3.243,3.2469,3.254,3.2571,3.2563,3.2699,3.2677,3.2641,3.2576,3.2701,3.2751,3.2772,3.2499,3.2497,3.2496,3.2494,0,0,3.2106,3.2171,3.2197,3.2227,3.2283,3.2343,3.243,3.25,3.254,3.2591,3.2663,3.2765,3.2731,3.2771,3.2767,3.2827,3.2952,3.2784,3.2785,3.2812,3.3101,3.3127,3.3151,3.2936,3.294,3.2943,3.3096,0,3.226,3.2412,3.2411,3.2551,3.2622,3.2591,3.2666,3.2708,3.2723,3.2785,3.2801,3.2872,3.2824,3.2847,3.2905,3.2925,3.301,3.2914,3.3001,3.3004,3.2988,3.3177,3.3205,3.3348,3.3116,3.312,3.3122,0,3.2461,3.2517,3.2665,3.2708,3.2738,3.2806,3.2868,3.2928,3.2975,3.2981,3.3024,3.301,3.3097,3.303,3.3149,3.3083,3.3119,3.3133,3.3139,3.3146,3.307,3.3188,3.3394,3.3415,3.3153,3.3151,3.3149,0,3.2589,3.2702,3.2803,3.2831,3.2885,3.2932,3.2957,3.2999,3.3041,3.3095,3.3122,3.3187,3.3222,3.3272,3.3275,3.3225,3.3394,3.3327,3.34,3.34,3.3437,3.3434,3.3649,3.3462,3.3462,3.3462,3.3461,0,3.2761,3.2852,3.2861,3.2924,3.3024,3.3021,3.312,3.314,3.3178,3.3243,3.3221,3.3282,3.3283,3.3346,3.3349,3.3446,3.3463,3.3469,3.3469,3.3471,3.3469,3.3493,3.3482,3.3467,3.3466,3.3465,3.3464,0,3.292,3.2931,3.3039,3.3081,3.3093,3.3165,3.32,3.3259,3.3271,3.3354,3.3373,3.3392,3.3464,3.3472,3.3557,3.3559,3.3675,3.3665,3.366,3.3657,3.3729,3.3722,3.3966,3.3997,3.3792,3.3794,3.3795,0,3.3029,3.3098,3.3146,3.3188,3.3215,3.3283,3.3324,3.3324,3.3368,3.3425,3.3477,3.3547,3.3602,3.3719,3.374,3.3804,3.3794,3.3875,3.3804,3.3803,3.3793,3.3788,3.3794,3.3889,3.3891,3.3893,3.3895,0,3.322,3.3221,3.3282,3.3344,3.3394,3.3444,3.349,3.3525,3.353,3.3581,3.3654,3.3697,3.3783,3.3852,3.3915,3.3939,3.3918,3.3917,3.3937,3.3939,3.3932,3.3935,3.3696,3.3911,3.391,3.3908,3.3908,3.3907,3.3356,3.3415,3.3457,3.3525,3.356,3.3603,3.366,3.3678,3.3739,3.3808,3.3804,3.3885,3.3927,3.4009,3.4038,3.41,3.4073,3.4103,3.411,3.4117,3.4123,3.3923,3.4112,3.4111,3.4111,3.411,3.411,0,3.3544,3.3569,3.3632,3.3696,3.3749,3.3724,3.3773,3.3819,3.389,3.3932,3.3987,3.407,3.4137,3.4162,3.4227,3.4271,3.4263,3.4288,3.4284,3.429,3.4145,3.412,3.4294,3.4294,3.4294,3.4294,3.4294,3.4294,3.3648,3.3745,3.3751,3.3865,3.389,3.3968,3.3998,3.4037,3.407,3.4164,3.4218,3.4234,3.4269,3.4336,3.4395,3.4401,3.4425,3.4454,3.4455,3.4319,3.43,3.4283,3.4259,3.446,3.446,3.4595,3.4596,3.4597]},{"header":{"parameterUnit":"m.s-1","parameterCategory":1,"la1":30.2991,"la2":30.254,"lo1":-89.0895,"lo2":-89.0444,"dy":0.0017,"dx":0.0017,"nx":28,"ny":28,"refTime":"2023-10-13T09:00:00:Z","depth":0,"parameterNumber":3,"parameterNumberName":"V-component_of_WINDS"},"data":[0,0,0,0,0,0,0,0,0,0,0,0,0,0,0,0,0,0,0,0,0,0,0,0,0,0,0,0,0,0,0,0,0,0,0,0,0,0,0,0,0,0,0,0,0,0,0,0,0,0,0,0,0,0,0,0,0,0,1.3671,1.3671,0,1.3656,1.3656,1.3656,1.3609,1.3608,1.3607,1.3606,1.359,1.359,1.3591,0,0,0,0,0,0,0,0,0,0,0,0,0,1.3657,1.3657,1.3671,1.3671,1.3671,1.3656,1.3656,1.3656,1.3609,1.3608,1.3606,1.3605,1.359,1.359,1.3591,0,0,0,0,0,0,0,0,0,0,0,0,0,1.3655,1.3658,1.3671,1.3646,1.3643,1.3656,1.3656,1.3656,1.3609,1.3608,1.3606,1.3605,1.3589,1.359,1.3591,1.3627,0,0,1.3594,1.3594,0,0,0,0,0,0,0,0,1.3655,1.3655,1.365,1.3647,1.3645,1.3633,1.3645,1.3646,1.361,1.3622,1.3606,1.3604,1.3605,1.3605,1.3605,1.3627,1.3626,1.3594,1.3594,1.3595,1.3595,0,0,0,0,0,0,0,1.3655,1.3656,1.3665,1.3649,1.3647,1.3634,1.3632,1.3645,1.3623,1.3621,1.3617,1.3616,1.3604,1.3605,1.3605,1.3626,1.3594,1.3594,1.3595,1.3595,1.3673,1.3675,0,0,0,0,0,0,1.3659,1.3656,1.3666,1.3665,1.3646,1.3636,1.3633,1.3638,1.3622,1.3618,1.3618,1.3614,1.3604,1.3604,1.3604,1.3644,1.3594,1.3595,1.3596,1.3672,1.3674,1.3675,0,0,0,0,0,0,1.3659,1.366,1.3666,1.3659,1.3659,1.3638,1.3643,1.3639,1.364,1.362,1.3616,1.3623,1.3603,1.3603,1.3621,1.3643,1.3596,1.3596,1.367,1.3672,1.3674,1.3725,0,0,0,0,0,0,1.3659,1.3661,1.3675,1.366,1.366,1.3685,1.3645,1.3639,1.3641,1.3637,1.3624,1.362,1.3602,1.362,1.3622,1.3643,1.3597,1.3668,1.3671,1.3674,1.3721,1.3729,1.3735,0,0,0,0,0,1.3658,1.369,1.3676,1.3677,1.3677,1.3686,1.3686,1.3664,1.3643,1.3657,1.3644,1.3621,1.364,1.3623,1.3624,1.3646,1.3666,1.367,1.3674,1.3718,1.3727,1.3735,0,0,0,0,0,0,1.3708,1.3688,1.3672,1.37,1.3695,1.3678,1.3695,1.3675,1.3676,1.3671,1.3644,1.3641,1.3663,1.3656,1.3637,1.3679,1.3649,1.3653,1.3683,1.3691,1.3698,1.3699,1.3598,0,0,0,0,0,1.3723,1.3732,1.3713,1.374,1.3738,1.3717,1.372,1.3703,1.3697,1.3695,1.3684,1.3678,1.3683,1.3687,1.369,1.372,1.3715,1.3735,1.3742,1.3748,1.3752,1.3765,1.3773,1.3687,1.3687,1.3687,0,0,1.3752,1.3742,1.375,1.3749,1.3744,1.3753,1.3716,1.3728,1.3734,1.3697,1.3713,1.3705,1.3697,1.3721,1.3731,1.3715,1.3774,1.3752,1.3757,1.3758,1.3769,1.3777,1.3785,1.3689,1.3689,1.3689,0,0,1.3811,1.3805,1.3825,1.382,1.3811,1.3797,1.3802,1.3788,1.378,1.3796,1.3768,1.3775,1.3784,1.3779,1.3777,1.3831,1.3809,1.3833,1.3869,1.3883,1.3889,1.3895,1.3913,1.392,1.3837,1.3837,1.3837,0,1.3849,1.3862,1.3838,1.3851,1.3851,1.3817,1.3837,1.3833,1.3826,1.3827,1.381,1.3819,1.3811,1.3833,1.3846,1.3846,1.385,1.3835,1.389,1.3896,1.3901,1.3918,1.3925,1.384,1.384,1.3839,1.3839,0,1.3908,1.3918,1.3935,1.3929,1.3931,1.3948,1.3925,1.3929,1.3912,1.3899,1.3915,1.3904,1.3904,1.3907,1.3891,1.3926,1.3916,1.3895,1.3865,1.3912,1.3928,1.3934,1.3844,1.3843,1.3842,1.3842,0,0,1.3999,1.3978,1.3985,1.398,1.3968,1.3974,1.3988,1.3988,1.3992,1.3988,1.3998,1.4005,1.3985,1.3983,1.3966,1.3978,1.4019,1.3955,1.3954,1.3966,1.4055,1.407,1.4078,1.4004,1.4006,1.4007,1.4055,0,1.4054,1.4077,1.4055,1.4082,1.409,1.4056,1.4068,1.4061,1.4049,1.4053,1.4039,1.4044,1.4018,1.4016,1.4026,1.4012,1.4036,1.4008,1.4013,1.4013,1.4015,1.4086,1.4103,1.4149,1.4061,1.4062,1.4062,0,1.4121,1.4119,1.4147,1.4131,1.4133,1.4144,1.4141,1.4145,1.4136,1.4126,1.4123,1.4101,1.4113,1.4083,1.4098,1.4079,1.4079,1.4072,1.4073,1.4073,1.404,1.4086,1.4163,1.417,1.4072,1.4071,1.407,0,1.4182,1.4187,1.4204,1.4202,1.4183,1.4192,1.4184,1.4173,1.4174,1.417,1.417,1.4168,1.4167,1.4166,1.4143,1.4124,1.416,1.4129,1.4151,1.4151,1.416,1.4159,1.4237,1.4161,1.4161,1.4161,1.4161,0,1.4245,1.4263,1.4231,1.4242,1.426,1.4234,1.4253,1.4242,1.4232,1.4239,1.421,1.4217,1.4187,1.4191,1.4173,1.4187,1.4187,1.4178,1.4173,1.418,1.4181,1.418,1.4175,1.4163,1.4163,1.4162,1.4162,0,1.4318,1.4297,1.4313,1.4293,1.4289,1.4303,1.4286,1.4294,1.4279,1.4288,1.4289,1.4265,1.4267,1.4245,1.4243,1.4231,1.4252,1.4242,1.4255,1.4252,1.4274,1.4272,1.4353,1.4362,1.4282,1.4282,1.4283,0,1.4359,1.4372,1.4353,1.4356,1.435,1.4354,1.4354,1.4328,1.4328,1.4317,1.4327,1.4326,1.4325,1.4329,1.4311,1.4309,1.4298,1.4326,1.4298,1.4304,1.4297,1.4296,1.4296,1.4333,1.4334,1.4334,1.4335,0,1.4433,1.4422,1.4423,1.442,1.442,1.4417,1.4411,1.4415,1.4386,1.4388,1.439,1.4388,1.4385,1.4385,1.4379,1.437,1.4347,1.4344,1.4349,1.4356,1.4363,1.4358,1.4271,1.4342,1.4342,1.4341,1.4341,1.4341,1.449,1.4499,1.4487,1.4489,1.4482,1.4477,1.4483,1.4468,1.4469,1.4465,1.4449,1.4453,1.4441,1.443,1.4424,1.4425,1.4411,1.4419,1.442,1.4422,1.4425,1.4363,1.4424,1.4424,1.4424,1.4424,1.4423,0,1.4562,1.4553,1.4554,1.4547,1.4547,1.4526,1.4518,1.452,1.4524,1.4515,1.4513,1.4514,1.4513,1.4494,1.449,1.4495,1.4485,1.4495,1.4494,1.4492,1.4439,1.4435,1.4504,1.4504,1.4504,1.4504,1.4504,1.4504,1.46,1.4614,1.46,1.461,1.46,1.4603,1.46,1.4595,1.4587,1.4589,1.4588,1.4576,1.4562,1.4557,1.4555,1.4549,1.4548,1.4562,1.4553,1.4504,1.4496,1.4489,1.4484,1.4563,1.4563,1.4606,1.4606,1.4606]}]]